iso_date,epoch_date,Year,Hour,Min,DOY,POS_DOY,Lat,Lon,BP,Ts,Ta,has_bp,has_ts,has_ta,BuoyID,Buoy_Type,Buoy_Owner,Logistics,Hemisphere
2015-09-15T00:00:00Z,1442275200,2015,0,0,258.0,258.0,86.619,-148.4842,1011.3,-7.3,-999.0,yes,yes,no,300234062959180,ICEB,USIABP,Healy,North
2015-09-15T01:00:28Z,1442278829,2015,1,0,258.042,258.042,86.6174,-148.437,1010.9,-7.9,-999.0,yes,yes,no,300234062959180,ICEB,USIABP,Healy,North
2015-09-15T01:59:31Z,1442282371,2015,2,0,258.083,258.083,86.615,-148.3882,1010.5,-7.6,-999.0,yes,yes,no,300234062959180,ICEB,USIABP,Healy,North
2015-09-15T03:00:00Z,1442286000,2015,3,0,258.125,258.125,86.6124,-148.343,1010.0,-8.4,-999.0,yes,yes,no,300234062959180,ICEB,USIABP,Healy,North
2015-09-15T04:00:28Z,1442289629,2015,4,0,258.167,258.167,86.6092,-148.305,1009.8,-8.7,-999.0,yes,yes,no,300234062959180,ICEB,USIABP,Healy,North
2015-09-15T04:59:31Z,1442293171,2015,5,0,258.208,258.208,86.6062,-148.2772,1009.3,-8.5,-999.0,yes,yes,no,300234062959180,ICEB,USIABP,Healy,North
2015-09-15T06:00:00Z,1442296800,2015,6,0,258.25,258.25,86.6034,-148.2618,1008.9,-8.7,-999.0,yes,yes,no,300234062959180,ICEB,USIABP,Healy,North
2015-09-15T07:00:28Z,1442300429,2015,7,0,258.292,258.292,86.6012,-148.2536,1008.5,-9.6,-999.0,yes,yes,no,300234062959180,ICEB,USIABP,Healy,North
2015-09-15T07:59:31Z,1442303971,2015,8,0,258.333,258.333,86.5998,-148.247,1008.1,-9.0,-999.0,yes,yes,no,300234062959180,ICEB,USIABP,Healy,North
2015-09-15T09:00:00Z,1442307600,2015,9,0,258.375,258.375,86.5994,-148.2378,1007.6,-8.8,-999.0,yes,yes,no,300234062959180,ICEB,USIABP,Healy,North
2015-09-15T10:00:28Z,1442311229,2015,10,0,258.417,258.417,86.5998,-148.22,1007.2,-8.8,-999.0,yes,yes,no,300234062959180,ICEB,USIABP,Healy,North
2015-09-15T10:59:31Z,1442314771,2015,11,0,258.458,258.458,86.6004,-148.1912,1006.9,-9.7,-999.0,yes,yes,no,300234062959180,ICEB,USIABP,Healy,North
2015-09-15T12:00:00Z,1442318400,2015,12,0,258.5,258.5,86.601,-148.1526,1006.3,-9.9,-999.0,yes,yes,no,300234062959180,ICEB,USIABP,Healy,North
2015-09-15T13:00:28Z,1442322029,2015,13,0,258.542,258.542,86.6014,-148.1074,1005.8,-10.0,-999.0,yes,yes,no,300234062959180,ICEB,USIABP,Healy,North
2015-09-15T13:59:31Z,1442325571,2015,14,0,258.583,258.583,86.6012,-148.0622,1005.4,-9.3,-999.0,yes,yes,no,300234062959180,ICEB,USIABP,Healy,North
2015-09-15T15:00:00Z,1442329200,2015,15,0,258.625,258.625,86.6006,-148.0254,1004.6,-8.9,-999.0,yes,yes,no,300234062959180,ICEB,USIABP,Healy,North
2015-09-15T16:00:28Z,1442332829,2015,16,0,258.667,258.667,86.5998,-147.9994,1004.1,-8.7,-999.0,yes,yes,no,300234062959180,ICEB,USIABP,Healy,North
2015-09-15T16:59:31Z,1442336371,2015,17,0,258.708,258.708,86.5992,-147.9832,1003.8,-9.3,-999.0,yes,yes,no,300234062959180,ICEB,USIABP,Healy,North
2015-09-15T18:00:00Z,1442340000,2015,18,0,258.75,258.75,86.599,-147.9758,1003.3,-9.7,-999.0,yes,yes,no,300234062959180,ICEB,USIABP,Healy,North
2015-09-15T19:00:28Z,1442343629,2015,19,0,258.792,258.792,86.5992,-147.9756,1002.9,-9.5,-999.0,yes,yes,no,300234062959180,ICEB,USIABP,Healy,North
2015-09-15T19:59:31Z,1442347171,2015,20,0,258.833,258.833,86.6,-147.9778,1002.5,-9.4,-999.0,yes,yes,no,300234062959180,ICEB,USIABP,Healy,North
2015-09-15T21:00:00Z,1442350800,2015,21,0,258.875,258.875,86.6014,-147.978,1002.2,-10.1,-999.0,yes,yes,no,300234062959180,ICEB,USIABP,Healy,North
2015-09-15T22:00:28Z,1442354429,2015,22,0,258.917,258.917,86.6036,-147.973,1002.0,-9.4,-999.0,yes,yes,no,300234062959180,ICEB,USIABP,Healy,North
2015-09-15T22:59:31Z,1442357971,2015,23,0,258.958,258.958,86.606,-147.962,1001.7,-8.8,-999.0,yes,yes,no,300234062959180,ICEB,USIABP,Healy,North
2015-09-16T00:00:00Z,1442361600,2015,0,0,259.0,259.0,86.6082,-147.9476,1001.5,-9.1,-999.0,yes,yes,no,300234062959180,ICEB,USIABP,Healy,North
2015-09-16T01:00:28Z,1442365229,2015,1,0,259.042,259.042,86.6104,-147.9326,1001.3,-8.3,-999.0,yes,yes,no,300234062959180,ICEB,USIABP,Healy,North
2015-09-16T01:59:31Z,1442368771,2015,2,0,259.083,259.083,86.612,-147.9194,1001.3,-8.3,-999.0,yes,yes,no,300234062959180,ICEB,USIABP,Healy,North
2015-09-16T03:00:00Z,1442372400,2015,3,0,259.125,259.125,86.613,-147.9118,1001.5,-8.1,-999.0,yes,yes,no,300234062959180,ICEB,USIABP,Healy,North
2015-09-16T04:00:28Z,1442376029,2015,4,0,259.167,259.167,86.6134,-147.9162,1001.6,-8.5,-999.0,yes,yes,no,300234062959180,ICEB,USIABP,Healy,North
2015-09-16T04:59:31Z,1442379571,2015,5,0,259.208,259.208,86.6136,-147.9366,1001.9,-8.8,-999.0,yes,yes,no,300234062959180,ICEB,USIABP,Healy,North
2015-09-16T06:00:00Z,1442383200,2015,6,0,259.25,259.25,86.6138,-147.9702,1001.8,-8.8,-999.0,yes,yes,no,300234062959180,ICEB,USIABP,Healy,North
2015-09-16T07:00:28Z,1442386829,2015,7,0,259.292,259.292,86.6146,-148.0122,1002.0,-8.9,-999.0,yes,yes,no,300234062959180,ICEB,USIABP,Healy,North
2015-09-16T07:59:31Z,1442390371,2015,8,0,259.333,259.333,86.616,-148.0586,1002.4,-9.5,-999.0,yes,yes,no,300234062959180,ICEB,USIABP,Healy,North
2015-09-16T09:00:00Z,1442394000,2015,9,0,259.375,259.375,86.6178,-148.103,1002.6,-10.0,-999.0,yes,yes,no,300234062959180,ICEB,USIABP,Healy,North
2015-09-16T10:00:28Z,1442397629,2015,10,0,259.417,259.417,86.6202,-148.142,1002.8,-9.1,-999.0,yes,yes,no,300234062959180,ICEB,USIABP,Healy,North
2015-09-16T10:59:31Z,1442401171,2015,11,0,259.458,259.458,86.6228,-148.176,1003.1,-8.6,-999.0,yes,yes,no,300234062959180,ICEB,USIABP,Healy,North
2015-09-16T12:00:00Z,1442404800,2015,12,0,259.5,259.5,86.6252,-148.2026,1003.5,-8.4,-999.0,yes,yes,no,300234062959180,ICEB,USIABP,Healy,North
2015-09-16T13:00:28Z,1442408429,2015,13,0,259.542,259.542,86.6268,-148.2182,1003.8,-8.2,-999.0,yes,yes,no,300234062959180,ICEB,USIABP,Healy,North
2015-09-16T13:59:31Z,1442411971,2015,14,0,259.583,259.583,86.6278,-148.2344,1003.9,-8.1,-999.0,yes,yes,no,300234062959180,ICEB,USIABP,Healy,North
2015-09-16T15:00:00Z,1442415600,2015,15,0,259.625,259.625,86.628,-148.256,1004.1,-7.8,-999.0,yes,yes,no,300234062959180,ICEB,USIABP,Healy,North
2015-09-16T16:00:28Z,1442419229,2015,16,0,259.667,259.667,86.6278,-148.2886,1004.3,-7.3,-999.0,yes,yes,no,300234062959180,ICEB,USIABP,Healy,North
2015-09-16T16:59:31Z,1442422771,2015,17,0,259.708,259.708,86.6274,-148.3308,1004.6,-7.1,-999.0,yes,yes,no,300234062959180,ICEB,USIABP,Healy,North
2015-09-16T18:00:00Z,1442426400,2015,18,0,259.75,259.75,86.6268,-148.3796,1004.7,-7.2,-999.0,yes,yes,no,300234062959180,ICEB,USIABP,Healy,North
2015-09-16T19:00:28Z,1442430029,2015,19,0,259.792,259.792,86.6264,-148.4338,1004.7,-7.3,-999.0,yes,yes,no,300234062959180,ICEB,USIABP,Healy,North
2015-09-16T19:59:31Z,1442433571,2015,20,0,259.833,259.833,86.6262,-148.4878,1004.9,-7.4,-999.0,yes,yes,no,300234062959180,ICEB,USIABP,Healy,North
2015-09-16T21:00:00Z,1442437200,2015,21,0,259.875,259.875,86.6262,-148.5378,1004.8,-7.6,-999.0,yes,yes,no,300234062959180,ICEB,USIABP,Healy,North
2015-09-16T22:00:28Z,1442440829,2015,22,0,259.917,259.917,86.6264,-148.575,1004.6,-7.4,-999.0,yes,yes,no,300234062959180,ICEB,USIABP,Healy,North
2015-09-16T22:59:31Z,1442444371,2015,23,0,259.958,259.958,86.6262,-148.5958,1004.5,-7.7,-999.0,yes,yes,no,300234062959180,ICEB,USIABP,Healy,North
2015-09-17T00:00:00Z,1442448000,2015,0,0,260.0,260.0,86.6252,-148.605,1004.3,-8.1,-999.0,yes,yes,no,300234062959180,ICEB,USIABP,Healy,North
2015-09-17T01:00:28Z,1442451629,2015,1,0,260.042,260.042,86.6236,-148.5984,1003.8,-9.3,-999.0,yes,yes,no,300234062959180,ICEB,USIABP,Healy,North
2015-09-17T01:59:31Z,1442455171,2015,2,0,260.083,260.083,86.621,-148.5856,1003.2,-9.2,-999.0,yes,yes,no,300234062959180,ICEB,USIABP,Healy,North
2015-09-17T03:00:00Z,1442458800,2015,3,0,260.125,260.125,86.6172,-148.5694,1002.5,-9.2,-999.0,yes,yes,no,300234062959180,ICEB,USIABP,Healy,North
2015-09-17T04:00:28Z,1442462429,2015,4,0,260.167,260.167,86.6128,-148.5546,1001.8,-8.5,-999.0,yes,yes,no,300234062959180,ICEB,USIABP,Healy,North
2015-09-17T04:59:31Z,1442465971,2015,5,0,260.208,260.208,86.608,-148.5516,1000.9,-8.5,-999.0,yes,yes,no,300234062959180,ICEB,USIABP,Healy,North
2015-09-17T06:00:00Z,1442469600,2015,6,0,260.25,260.25,86.6034,-148.5664,999.8,-7.8,-999.0,yes,yes,no,300234062959180,ICEB,USIABP,Healy,North
2015-09-17T07:00:28Z,1442473229,2015,7,0,260.292,260.292,86.5992,-148.6058,999.2,-7.0,-999.0,yes,yes,no,300234062959180,ICEB,USIABP,Healy,North
2015-09-17T07:59:31Z,1442476771,2015,8,0,260.333,260.333,86.5964,-148.6654,999.2,-6.2,-999.0,yes,yes,no,300234062959180,ICEB,USIABP,Healy,North
2015-09-17T09:00:00Z,1442480400,2015,9,0,260.375,260.375,86.5948,-148.734,999.8,-5.7,-999.0,yes,yes,no,300234062959180,ICEB,USIABP,Healy,North
2015-09-17T10:00:28Z,1442484029,2015,10,0,260.417,260.417,86.5952,-148.7988,1000.3,-5.8,-999.0,yes,yes,no,300234062959180,ICEB,USIABP,Healy,North
2015-09-17T10:59:31Z,1442487571,2015,11,0,260.458,260.458,86.5972,-148.8464,1000.8,-6.3,-999.0,yes,yes,no,300234062959180,ICEB,USIABP,Healy,North
2015-09-17T12:00:00Z,1442491200,2015,12,0,260.5,260.5,86.6,-148.8704,1001.2,-6.6,-999.0,yes,yes,no,300234062959180,ICEB,USIABP,Healy,North
2015-09-17T13:00:28Z,1442494829,2015,13,0,260.542,260.542,86.6028,-148.8676,1001.5,-6.9,-999.0,yes,yes,no,300234062959180,ICEB,USIABP,Healy,North
2015-09-17T13:59:31Z,1442498371,2015,14,0,260.583,260.583,86.6044,-148.8416,1001.6,-7.2,-999.0,yes,yes,no,300234062959180,ICEB,USIABP,Healy,North
2015-09-17T15:00:00Z,1442502000,2015,15,0,260.625,260.625,86.6046,-148.81,1001.9,-7.1,-999.0,yes,yes,no,300234062959180,ICEB,USIABP,Healy,North
2015-09-17T16:00:28Z,1442505629,2015,16,0,260.667,260.667,86.6038,-148.7928,1002.0,-7.0,-999.0,yes,yes,no,300234062959180,ICEB,USIABP,Healy,North
2015-09-17T16:59:31Z,1442509171,2015,17,0,260.708,260.708,86.6026,-148.7956,1002.2,-6.9,-999.0,yes,yes,no,300234062959180,ICEB,USIABP,Healy,North
2015-09-17T18:00:00Z,1442512800,2015,18,0,260.75,260.75,86.6018,-148.8172,1002.5,-7.0,-999.0,yes,yes,no,300234062959180,ICEB,USIABP,Healy,North
2015-09-17T19:00:28Z,1442516429,2015,19,0,260.792,260.792,86.601,-148.8536,1002.8,-7.6,-999.0,yes,yes,no,300234062959180,ICEB,USIABP,Healy,North
2015-09-17T19:59:31Z,1442519971,2015,20,0,260.833,260.833,86.601,-148.8998,1002.8,-8.2,-999.0,yes,yes,no,300234062959180,ICEB,USIABP,Healy,North
2015-09-17T21:00:00Z,1442523600,2015,21,0,260.875,260.875,86.6016,-148.947,1002.9,-8.6,-999.0,yes,yes,no,300234062959180,ICEB,USIABP,Healy,North
2015-09-17T22:00:28Z,1442527229,2015,22,0,260.917,260.917,86.603,-148.9862,1002.8,-8.9,-999.0,yes,yes,no,300234062959180,ICEB,USIABP,Healy,North
2015-09-17T22:59:31Z,1442530771,2015,23,0,260.958,260.958,86.6048,-149.0098,1002.8,-9.1,-999.0,yes,yes,no,300234062959180,ICEB,USIABP,Healy,North
2015-09-18T00:00:00Z,1442534400,2015,0,0,261.0,261.0,86.606,-149.0176,1002.8,-8.8,-999.0,yes,yes,no,300234062959180,ICEB,USIABP,Healy,North
2015-09-18T01:00:28Z,1442538029,2015,1,0,261.042,261.042,86.606,-149.0234,1002.7,-8.3,-999.0,yes,yes,no,300234062959180,ICEB,USIABP,Healy,North
2015-09-18T01:59:31Z,1442541571,2015,2,0,261.083,261.083,86.605,-149.0356,1002.5,-7.9,-999.0,yes,yes,no,300234062959180,ICEB,USIABP,Healy,North
2015-09-18T03:00:00Z,1442545200,2015,3,0,261.125,261.125,86.603,-149.0548,1002.4,-7.5,-999.0,yes,yes,no,300234062959180,ICEB,USIABP,Healy,North
2015-09-18T04:00:28Z,1442548829,2015,4,0,261.167,261.167,86.6002,-149.0816,1002.3,-7.1,-999.0,yes,yes,no,300234062959180,ICEB,USIABP,Healy,North
2015-09-18T04:59:31Z,1442552371,2015,5,0,261.208,261.208,86.5968,-149.118,1002.5,-6.8,-999.0,yes,yes,no,300234062959180,ICEB,USIABP,Healy,North
2015-09-18T06:00:00Z,1442556000,2015,6,0,261.25,261.25,86.5934,-149.1668,1002.5,-6.5,-999.0,yes,yes,no,300234062959180,ICEB,USIABP,Healy,North
2015-09-18T07:00:28Z,1442559629,2015,7,0,261.292,261.292,86.5904,-149.2238,1002.4,-6.3,-999.0,yes,yes,no,300234062959180,ICEB,USIABP,Healy,North
2015-09-18T07:59:31Z,1442563171,2015,8,0,261.333,261.333,86.5888,-149.2818,1002.4,-6.3,-999.0,yes,yes,no,300234062959180,ICEB,USIABP,Healy,North
2015-09-18T09:00:00Z,1442566800,2015,9,0,261.375,261.375,86.5884,-149.3314,1002.4,-6.3,-999.0,yes,yes,no,300234062959180,ICEB,USIABP,Healy,North
2015-09-18T10:00:28Z,1442570429,2015,10,0,261.417,261.417,86.5888,-149.3672,1002.6,-6.6,-999.0,yes,yes,no,300234062959180,ICEB,USIABP,Healy,North
2015-09-18T10:59:31Z,1442573971,2015,11,0,261.458,261.458,86.5894,-149.3912,1002.7,-6.9,-999.0,yes,yes,no,300234062959180,ICEB,USIABP,Healy,North
2015-09-18T12:00:00Z,1442577600,2015,12,0,261.5,261.5,86.59,-149.3872,1002.6,-7.4,-999.0,yes,yes,no,300234062959180,ICEB,USIABP,Healy,North
2015-09-18T13:00:28Z,1442581229,2015,13,0,261.542,261.542,86.5898,-149.3672,1002.5,-7.9,-999.0,yes,yes,no,300234062959180,ICEB,USIABP,Healy,North
2015-09-18T13:59:31Z,1442584771,2015,14,0,261.583,261.583,86.5884,-149.3452,1002.2,-8.2,-999.0,yes,yes,no,300234062959180,ICEB,USIABP,Healy,North
2015-09-18T15:00:00Z,1442588400,2015,15,0,261.625,261.625,86.5864,-149.3218,1002.4,-8.4,-999.0,yes,yes,no,300234062959180,ICEB,USIABP,Healy,North
2015-09-18T16:00:28Z,1442592029,2015,16,0,261.667,261.667,86.584,-149.304,1002.4,-8.5,-999.0,yes,yes,no,300234062959180,ICEB,USIABP,Healy,North
2015-09-18T16:59:31Z,1442595571,2015,17,0,261.708,261.708,86.5814,-149.2956,1002.3,-8.6,-999.0,yes,yes,no,300234062959180,ICEB,USIABP,Healy,North
2015-09-18T18:00:00Z,1442599200,2015,18,0,261.75,261.75,86.5794,-149.2978,1002.5,-8.6,-999.0,yes,yes,no,300234062959180,ICEB,USIABP,Healy,North
2015-09-18T19:00:28Z,1442602829,2015,19,0,261.792,261.792,86.5782,-149.3086,1002.4,-8.8,-999.0,yes,yes,no,300234062959180,ICEB,USIABP,Healy,North
2015-09-18T19:59:31Z,1442606371,2015,20,0,261.833,261.833,86.578,-149.3232,1002.7,-9.0,-999.0,yes,yes,no,300234062959180,ICEB,USIABP,Healy,North
2015-09-18T21:00:00Z,1442610000,2015,21,0,261.875,261.875,86.579,-149.3336,1003.0,-9.5,-999.0,yes,yes,no,300234062959180,ICEB,USIABP,Healy,North
2015-09-18T22:00:28Z,1442613629,2015,22,0,261.917,261.917,86.5812,-149.3338,1003.3,-10.0,-999.0,yes,yes,no,300234062959180,ICEB,USIABP,Healy,North
2015-09-18T22:59:31Z,1442617171,2015,23,0,261.958,261.958,86.584,-149.3178,1003.6,-10.1,-999.0,yes,yes,no,300234062959180,ICEB,USIABP,Healy,North
2015-09-19T00:00:00Z,1442620800,2015,0,0,262.0,262.0,86.5868,-149.2876,1004.0,-9.9,-999.0,yes,yes,no,300234062959180,ICEB,USIABP,Healy,North
2015-09-19T01:00:28Z,1442624429,2015,1,0,262.042,262.042,86.5894,-149.2456,1004.3,-10.1,-999.0,yes,yes,no,300234062959180,ICEB,USIABP,Healy,North
2015-09-19T01:59:31Z,1442627971,2015,2,0,262.083,262.083,86.592,-149.1958,1004.6,-10.0,-999.0,yes,yes,no,300234062959180,ICEB,USIABP,Healy,North
2015-09-19T03:00:00Z,1442631600,2015,3,0,262.125,262.125,86.594,-149.1498,1005.0,-9.8,-999.0,yes,yes,no,300234062959180,ICEB,USIABP,Healy,North
2015-09-19T04:00:28Z,1442635229,2015,4,0,262.167,262.167,86.5954,-149.1188,1005.3,-9.8,-999.0,yes,yes,no,300234062959180,ICEB,USIABP,Healy,North
2015-09-19T04:59:31Z,1442638771,2015,5,0,262.208,262.208,86.5966,-149.0956,1005.7,-10.6,-999.0,yes,yes,no,300234062959180,ICEB,USIABP,Healy,North
2015-09-19T06:00:00Z,1442642400,2015,6,0,262.25,262.25,86.598,-149.0852,1006.0,-11.9,-999.0,yes,yes,no,300234062959180,ICEB,USIABP,Healy,North
2015-09-19T07:00:28Z,1442646029,2015,7,0,262.292,262.292,86.6004,-149.0882,1006.3,-13.2,-999.0,yes,yes,no,300234062959180,ICEB,USIABP,Healy,North
2015-09-19T07:59:31Z,1442649571,2015,8,0,262.333,262.333,86.6036,-149.0972,1006.9,-13.9,-999.0,yes,yes,no,300234062959180,ICEB,USIABP,Healy,North
2015-09-19T09:00:00Z,1442653200,2015,9,0,262.375,262.375,86.6084,-149.1052,1007.0,-13.6,-999.0,yes,yes,no,300234062959180,ICEB,USIABP,Healy,North
2015-09-19T10:00:28Z,1442656829,2015,10,0,262.417,262.417,86.6142,-149.1056,1007.5,-12.6,-999.0,yes,yes,no,300234062959180,ICEB,USIABP,Healy,North
2015-09-19T10:59:31Z,1442660371,2015,11,0,262.458,262.458,86.6206,-149.0958,1008.0,-12.1,-999.0,yes,yes,no,300234062959180,ICEB,USIABP,Healy,North
2015-09-19T12:00:00Z,1442664000,2015,12,0,262.5,262.5,86.6272,-149.076,1008.5,-12.1,-999.0,yes,yes,no,300234062959180,ICEB,USIABP,Healy,North
2015-09-19T13:00:28Z,1442667629,2015,13,0,262.542,262.542,86.633,-149.0452,1008.8,-12.4,-999.0,yes,yes,no,300234062959180,ICEB,USIABP,Healy,North
2015-09-19T13:59:31Z,1442671171,2015,14,0,262.583,262.583,86.6376,-149.0062,1009.1,-12.1,-999.0,yes,yes,no,300234062959180,ICEB,USIABP,Healy,North
2015-09-19T15:00:00Z,1442674800,2015,15,0,262.625,262.625,86.6406,-148.9696,1009.2,-12.6,-999.0,yes,yes,no,300234062959180,ICEB,USIABP,Healy,North
2015-09-19T16:00:28Z,1442678429,2015,16,0,262.667,262.667,86.6428,-148.941,1009.3,-13.3,-999.0,yes,yes,no,300234062959180,ICEB,USIABP,Healy,North
2015-09-19T16:59:31Z,1442681971,2015,17,0,262.708,262.708,86.6446,-148.9266,1009.5,-13.1,-999.0,yes,yes,no,300234062959180,ICEB,USIABP,Healy,North
2015-09-19T18:00:00Z,1442685600,2015,18,0,262.75,262.75,86.6466,-148.9264,1009.6,-12.6,-999.0,yes,yes,no,300234062959180,ICEB,USIABP,Healy,North
2015-09-19T19:00:28Z,1442689229,2015,19,0,262.792,262.792,86.649,-148.9338,1009.6,-12.6,-999.0,yes,yes,no,300234062959180,ICEB,USIABP,Healy,North
2015-09-19T19:59:31Z,1442692771,2015,20,0,262.833,262.833,86.652,-148.947,1009.9,-12.8,-999.0,yes,yes,no,300234062959180,ICEB,USIABP,Healy,North
2015-09-19T21:00:00Z,1442696400,2015,21,0,262.875,262.875,86.6558,-148.9626,1010.1,-12.1,-999.0,yes,yes,no,300234062959180,ICEB,USIABP,Healy,North
2015-09-19T22:00:28Z,1442700029,2015,22,0,262.917,262.917,86.6604,-148.969,1010.4,-11.7,-999.0,yes,yes,no,300234062959180,ICEB,USIABP,Healy,North
2015-09-19T22:59:31Z,1442703571,2015,23,0,262.958,262.958,86.6648,-148.9674,1010.5,-11.5,-999.0,yes,yes,no,300234062959180,ICEB,USIABP,Healy,North
2015-09-20T00:00:00Z,1442707200,2015,0,0,263.0,263.0,86.6694,-148.9546,1010.6,-11.7,-999.0,yes,yes,no,300234062959180,ICEB,USIABP,Healy,North
2015-09-20T01:00:28Z,1442710829,2015,1,0,263.042,263.042,86.6738,-148.9346,1010.4,-11.8,-999.0,yes,yes,no,300234062959180,ICEB,USIABP,Healy,North
2015-09-20T01:59:31Z,1442714371,2015,2,0,263.083,263.083,86.6778,-148.9128,1010.3,-12.2,-999.0,yes,yes,no,300234062959180,ICEB,USIABP,Healy,North
2015-09-20T03:00:00Z,1442718000,2015,3,0,263.125,263.125,86.6812,-148.892,1010.0,-11.6,-999.0,yes,yes,no,300234062959180,ICEB,USIABP,Healy,North
2015-09-20T04:00:28Z,1442721629,2015,4,0,263.167,263.167,86.6844,-148.8798,1010.0,-10.7,-999.0,yes,yes,no,300234062959180,ICEB,USIABP,Healy,North
2015-09-20T04:59:31Z,1442725171,2015,5,0,263.208,263.208,86.6872,-148.879,1010.2,-10.8,-999.0,yes,yes,no,300234062959180,ICEB,USIABP,Healy,North
2015-09-20T06:00:00Z,1442728800,2015,6,0,263.25,263.25,86.6896,-148.8872,1010.0,-11.2,-999.0,yes,yes,no,300234062959180,ICEB,USIABP,Healy,North
2015-09-20T07:00:28Z,1442732429,2015,7,0,263.292,263.292,86.6924,-148.9056,1010.2,-10.9,-999.0,yes,yes,no,300234062959180,ICEB,USIABP,Healy,North
2015-09-20T07:59:31Z,1442735971,2015,8,0,263.333,263.333,86.6956,-148.9328,1010.1,-10.6,-999.0,yes,yes,no,300234062959180,ICEB,USIABP,Healy,North
2015-09-20T09:00:00Z,1442739600,2015,9,0,263.375,263.375,86.6994,-148.961,1010.2,-10.2,-999.0,yes,yes,no,300234062959180,ICEB,USIABP,Healy,North
2015-09-20T10:00:28Z,1442743229,2015,10,0,263.417,263.417,86.7038,-148.987,1010.4,-10.0,-999.0,yes,yes,no,300234062959180,ICEB,USIABP,Healy,North
2015-09-20T10:59:31Z,1442746771,2015,11,0,263.458,263.458,86.7086,-149.0062,1010.4,-9.9,-999.0,yes,yes,no,300234062959180,ICEB,USIABP,Healy,North
2015-09-20T12:00:00Z,1442750400,2015,12,0,263.5,263.5,86.7134,-149.0168,1010.5,-9.9,-999.0,yes,yes,no,300234062959180,ICEB,USIABP,Healy,North
2015-09-20T13:00:28Z,1442754029,2015,13,0,263.542,263.542,86.7182,-149.0196,1010.6,-10.1,-999.0,yes,yes,no,300234062959180,ICEB,USIABP,Healy,North
2015-09-20T13:59:31Z,1442757571,2015,14,0,263.583,263.583,86.7226,-149.0188,1010.6,-10.5,-999.0,yes,yes,no,300234062959180,ICEB,USIABP,Healy,North
2015-09-20T15:00:00Z,1442761200,2015,15,0,263.625,263.625,86.7262,-149.0166,1010.7,-11.7,-999.0,yes,yes,no,300234062959180,ICEB,USIABP,Healy,North
2015-09-20T16:00:28Z,1442764829,2015,16,0,263.667,263.667,86.729,-149.0194,1010.9,-12.9,-999.0,yes,yes,no,300234062959180,ICEB,USIABP,Healy,North
2015-09-20T16:59:31Z,1442768371,2015,17,0,263.708,263.708,86.7312,-149.033,1011.0,-12.9,-999.0,yes,yes,no,300234062959180,ICEB,USIABP,Healy,North
2015-09-20T18:00:00Z,1442772000,2015,18,0,263.75,263.75,86.7336,-149.0578,1011.1,-13.2,-999.0,yes,yes,no,300234062959180,ICEB,USIABP,Healy,North
2015-09-20T19:00:28Z,1442775629,2015,19,0,263.792,263.792,86.736,-149.0928,1011.2,-13.3,-999.0,yes,yes,no,300234062959180,ICEB,USIABP,Healy,North
2015-09-20T19:59:31Z,1442779171,2015,20,0,263.833,263.833,86.739,-149.136,1011.5,-13.6,-999.0,yes,yes,no,300234062959180,ICEB,USIABP,Healy,North
2015-09-20T21:00:00Z,1442782800,2015,21,0,263.875,263.875,86.7428,-149.176,1011.6,-13.4,-999.0,yes,yes,no,300234062959180,ICEB,USIABP,Healy,North
2015-09-20T22:00:28Z,1442786429,2015,22,0,263.917,263.917,86.7472,-149.2116,1011.8,-12.8,-999.0,yes,yes,no,300234062959180,ICEB,USIABP,Healy,North
2015-09-20T22:59:31Z,1442789971,2015,23,0,263.958,263.958,86.7516,-149.2378,1012.0,-12.4,-999.0,yes,yes,no,300234062959180,ICEB,USIABP,Healy,North
2015-09-21T00:00:00Z,1442793600,2015,0,0,264.0,264.0,86.7562,-149.254,1012.2,-12.4,-999.0,yes,yes,no,300234062959180,ICEB,USIABP,Healy,North
2015-09-21T01:00:28Z,1442797229,2015,1,0,264.042,264.042,86.7606,-149.259,1012.6,-13.1,-999.0,yes,yes,no,300234062959180,ICEB,USIABP,Healy,North
2015-09-21T01:59:31Z,1442800771,2015,2,0,264.083,264.083,86.764,-149.258,1012.8,-13.0,-999.0,yes,yes,no,300234062959180,ICEB,USIABP,Healy,North
2015-09-21T03:00:00Z,1442804400,2015,3,0,264.125,264.125,86.7668,-149.2578,1012.9,-12.9,-999.0,yes,yes,no,300234062959180,ICEB,USIABP,Healy,North
2015-09-21T04:00:28Z,1442808029,2015,4,0,264.167,264.167,86.7688,-149.2632,1012.9,-13.0,-999.0,yes,yes,no,300234062959180,ICEB,USIABP,Healy,North
2015-09-21T04:59:31Z,1442811571,2015,5,0,264.208,264.208,86.7706,-149.2764,1012.9,-12.8,-999.0,yes,yes,no,300234062959180,ICEB,USIABP,Healy,North
2015-09-21T06:00:00Z,1442815200,2015,6,0,264.25,264.25,86.7724,-149.3002,1013.0,-12.4,-999.0,yes,yes,no,300234062959180,ICEB,USIABP,Healy,North
2015-09-21T07:00:28Z,1442818829,2015,7,0,264.292,264.292,86.7748,-149.3304,1013.2,-12.1,-999.0,yes,yes,no,300234062959180,ICEB,USIABP,Healy,North
2015-09-21T07:59:31Z,1442822371,2015,8,0,264.333,264.333,86.7778,-149.3668,1013.7,-12.6,-999.0,yes,yes,no,300234062959180,ICEB,USIABP,Healy,North
2015-09-21T09:00:00Z,1442826000,2015,9,0,264.375,264.375,86.7816,-149.4068,1013.6,-12.8,-999.0,yes,yes,no,300234062959180,ICEB,USIABP,Healy,North
2015-09-21T10:00:28Z,1442829629,2015,10,0,264.417,264.417,86.7864,-149.4414,1013.7,-12.7,-999.0,yes,yes,no,300234062959180,ICEB,USIABP,Healy,North
2015-09-21T10:59:31Z,1442833171,2015,11,0,264.458,264.458,86.7916,-149.4646,1014.4,-11.9,-999.0,yes,yes,no,300234062959180,ICEB,USIABP,Healy,North
2015-09-21T12:00:00Z,1442836800,2015,12,0,264.5,264.456,86.7916,-149.4646,1014.0,-11.6,-999.0,yes,yes,no,300234062959180,ICEB,USIABP,Healy,North
2015-09-21T13:00:28Z,1442840429,2015,13,0,264.542,264.457,86.7916,-149.4646,1013.9,-9.4,-999.0,yes,yes,no,300234062959180,ICEB,USIABP,Healy,North
2015-09-21T13:59:31Z,1442843971,2015,14,0,264.583,264.456,86.7916,-149.4646,1013.8,-9.2,-999.0,yes,yes,no,300234062959180,ICEB,USIABP,Healy,North
2015-09-21T15:00:00Z,1442847600,2015,15,0,264.625,264.456,86.7916,-149.4646,1013.4,-9.7,-999.0,yes,yes,no,300234062959180,ICEB,USIABP,Healy,North
2015-09-21T16:00:28Z,1442851229,2015,16,0,264.667,264.457,86.7916,-149.4646,1013.4,-9.4,-999.0,yes,yes,no,300234062959180,ICEB,USIABP,Healy,North
2015-09-21T16:59:31Z,1442854771,2015,17,0,264.708,264.456,86.7916,-149.4646,1013.2,-9.1,-999.0,yes,yes,no,300234062959180,ICEB,USIABP,Healy,North
2015-09-21T18:00:00Z,1442858400,2015,18,0,264.75,264.456,86.7916,-149.4646,1013.0,-8.8,-999.0,yes,yes,no,300234062959180,ICEB,USIABP,Healy,North
2015-09-21T19:00:28Z,1442862029,2015,19,0,264.792,264.457,86.7916,-149.4646,1012.9,-8.4,-999.0,yes,yes,no,300234062959180,ICEB,USIABP,Healy,North